SL-23 DEB, 35577

Orbit data source: Space-Track

SL-23 DEB, 35577 is space debris in HEO originally from a launch on Thu, 26 Feb 2009 UTC launched from the Tyuratam Missile And Space Complex (TTMTR). Debris objects in space refer to the collection of defunct objects orbiting the Earth. Examples of debris include non-operational satellites, rocket bodies, and fragments generated from explosions, collisions, or faulty payload assembly.

Loading next visibility...
SL-23 DEB details
Identifier
35577, 2009-009C
Orbit
HEO
Last TLE update8 months ago
Origin
Flag of CISSIS (CIS)
ManufacturerUnknown
MissionSpacecraft
Bus & MotorUnknown
MassUnknown
Launch date (UTC)
2009-02-26 (16 years ago)
Launch vehicleUnknown
Launch site
Tyuratam Missile And Space Complex (TTMTR)
Object type
Payload
Rocket body
Debris
Shape & HBRUnknown
Radar Cross SectionMedium (>0.1 m² and <1 m²)

Expand to show TLE details & history

TLE from 8 months ago
0 SL-23 DEB
1 35577U 09009C   24156.38990581 -.00000056  00000-0  00000+0 0  9997
2 35577  35.1972 100.4794 6848400 239.7632 343.2146  2.20109299121453
Epoch: 2024-06-04T09:21Z
Definitive object data (Epoch: 2024-06-04T09:21:27.861Z)
Latitude14.59616°
Longitude-134.90013°
Altitude6,263.033 km
Speed6.863 km/s
True Right ascension17h 15m 06s
True Declination14° 32' 56"
Sunlit
Object was in daylight at TLE epoch
Visualization TLE readout
Latitude35.01329°
Longitude92.92332°
Altitude14,691.086 km
Speed4.678 km/s
Apparent Right ascension09h 15m 41s
Apparent Declination21° 42' 13"
Sunlit
Object is in daylight
Visualization observer readout
Local Sidereal Time00:30:45
Azimuth45.921° ENE
Elevation-13.439°
Doppler factor1
Orbital elements
Apogee altitude35,685.644 km
Perigee altitude1,490.16 km
Semi-major axis24,966.039 km
Eccentricity0.68484
Inclination35.1972°
RAAN100.4794°
Arg. of periapsis239.7632°
True anomaly273.77825°
Mean anomaly343.2146°
Eccentric anomaly315.91587°
Mean motion0.5502 °/min
BSTARUnknown
Orbital period654.31 mins
Loading maneuver chart data...
Loading historical data...
Loading historical data...
Loading historical data...
Loading historical data...
Loading historical data...
Loading historical data...
Loading historical data...
Other satellites on launch #9 in the year 2009 (2009-02-26 UTC)

SL-23 DEB Visibility forecast

Observer location: undefined°, undefined

Span
Click to sort rows by Start time (UTC) header in descending order
Start Az.
Max El. time (UTC)
Max El. Az.
Max El.
End time (UTC)
End Az.
474 mins2025-01-19 09:59:43.980Z281.04° WNW2025-01-19 11:53:43.980Z263.438° W40.068°2025-01-19 17:53:43.980Z257.403° W
|